Location: *
(29.1167°S, 130.0000°E)
Time: 00:51:53
(UTC+00:00)

TIMED - Pass Details

Date: 21 July 2019
Orbit: 602 x 605 km, 74.1° (Epoch: 23 August)

Event Time Altitude Azimuth Distance (km) Brightness Sun altitude
Rises 10:15:15 0° 195° (SSW) 2,884 8.0 -20.1°
Reaches altitude 10° 10:17:31 10° 194° (SSW) 1,972 7.1 -20.6°
Maximum altitude 10:21:55 84° 106° (ESE) 616 4.4 -21.5°
Drops below altitude 10° 10:26:17 10° 17° (NNE) 1,944 7.0 -22.4°
Sets 10:28:29 0° 16° (NNE) 2,839 7.9 -22.9°
